GFSSGP_prec_pwat_159.txt.gz
Precipitable_Water
0.60 0.59 0.78 0.59 0.27 0.29 0.21 0.30 0.50 0.47 0.52 0.69 0.79 0.82 0.76 0.86 0.77 0.65 1.35 1.54 1.51 1.43 1.43 1.30 1.33 1.45 1.45 1.47 1.39 1.32 1.23 1.13 1.17 1.20 1.21 1.20 1.22 1.38 1.51 1.55 1.55 1.72 1.84 1.86 1.81 1.72 1.54 1.44 1.35
0.59 0.59 0.62 0.44 0.21 0.16 0.17 0.36 0.43 0.51 0.64 0.88 0.88 0.83 0.73 0.68 1.06 1.12 1.21 1.50 1.58 1.57 1.53 1.33 1.49 1.43 1.42 1.36 1.43 1.34 1.23 1.13 1.18 1.26 1.18 1.18 1.20 1.39 1.45 1.51 1.64 1.72 1.90 1.83 1.80 1.65 1.49 1.38 1.28
0.55 0.73 0.40 0.28 0.24 0.17 0.18 0.32 0.48 0.54 0.79 0.69 0.75 0.88 0.76 0.69 1.00 1.16 1.35 1.43 1.54 1.57 1.64 1.41 1.44 1.38 1.38 1.37 1.43 1.36 1.28 1.14 1.35 1.30 1.28 1.14 1.24 1.41 1.42 1.48 1.63 1.75 1.80 1.75 1.67 1.58 1.47 1.33 1.28
0.56 0.59 0.52 0.34 0.24 0.26 0.31 0.38 0.48 0.53 0.62 0.66 0.80 0.63 0.88 1.04 0.98 1.18 1.37 1.46 1.47 1.52 1.59 1.47 1.48 1.37 1.35 1.39 1.51 1.41 1.35 1.24 1.34 1.27 1.23 1.49 1.29 1.36 1.39 1.55 1.65 1.73 1.68 1.65 1.62 1.50 1.40 1.32 1.27
0.63 0.50 0.30 0.29 0.27 0.33 0.44 0.55 0.56 0.50 0.53 0.62 0.74 0.58 0.67 1.03 1.22 1.20 1.24 1.34 1.37 1.49 1.56 1.51 1.52 1.48 1.38 1.40 1.50 1.49 1.41 1.31 1.31 1.32 1.54 1.55 1.60 1.48 1.52 1.59 1.68 1.64 1.61 1.55 1.47 1.40 1.37 1.34 1.34
0.37 0.44 0.25 0.21 0.23 0.30 0.43 0.54 0.57 0.54 0.55 0.62 0.65 0.65 0.74 1.09 1.12 1.14 1.26 1.23 1.28 1.28 1.40 1.46 1.53 1.50 1.47 1.45 1.53 1.49 1.42 1.38 1.37 1.37 1.52 1.63 1.66 1.57 1.64 1.60 1.63 1.59 1.53 1.47 1.39 1.44 1.47 1.43 1.41
0.32 0.29 0.23 0.25 0.25 0.27 0.36 0.50 0.52 0.50 0.50 0.51 0.67 0.53 0.71 0.94 1.11 1.17 1.23 1.27 1.27 1.27 1.27 1.35 1.45 1.46 1.48 1.48 1.55 1.49 1.42 1.51 1.47 1.42 1.50 1.58 1.70 1.66 1.64 1.66 1.66 1.58 1.54 1.49 1.49 1.53 1.50 1.46 1.48
0.40 0.34 0.26 0.27 0.25 0.28 0.38 0.45 0.50 0.48 0.46 0.61 0.68 0.43 0.45 0.76 1.05 1.10 1.18 1.18 1.19 1.19 1.19 1.21 1.31 1.42 1.53 1.57 1.61 1.55 1.52 1.63 1.64 1.58 1.54 1.59 1.60 1.68 1.59 1.69 1.69 1.62 1.57 1.55 1.53 1.56 1.57 1.52 1.49
0.46 0.26 0.20 0.21 0.22 0.26 0.37 0.37 0.47 0.52 0.47 0.48 0.52 0.49 0.59 0.85 1.02 0.98 0.98 1.01 1.02 1.07 1.16 1.28 1.37 1.47 1.54 1.54 1.61 1.67 1.68 1.74 1.78 1.76 1.65 1.62 1.64 1.64 1.60 1.57 1.57 1.59 1.59 1.57 1.57 1.59 1.59 1.60 1.56
0.36 0.24 0.23 0.29 0.31 0.29 0.34 0.38 0.42 0.43 0.41 0.40 0.40 0.52 0.58 0.81 0.83 0.77 0.77 0.75 0.82 0.89 0.98 1.11 1.20 1.27 1.39 1.46 1.54 1.61 1.66 1.69 1.74 1.75 1.67 1.61 1.60 1.62 1.62 1.56 1.52 1.56 1.56 1.63 1.62 1.62 1.60 1.61 1.54
0.35 0.25 0.29 0.27 0.34 0.36 0.35 0.35 0.40 0.38 0.34 0.35 0.36 0.42 0.55 0.72 0.73 0.75 0.74 0.73 0.69 0.82 0.95 1.05 1.11 1.17 1.18 1.22 1.30 1.39 1.50 1.55 1.66 1.61 1.63 1.64 1.61 1.60 1.60 1.58 1.57 1.62 1.60 1.62 1.64 1.66 1.64 1.55 1.47
0.27 0.32 0.31 0.28 0.32 0.35 0.33 0.38 0.35 0.38 0.36 0.42 0.42 0.43 0.51 0.61 0.62 0.65 0.62 0.59 0.64 0.72 0.84 0.97 1.07 1.11 1.13 1.14 1.14 1.18 1.23 1.33 1.40 1.49 1.55 1.55 1.52 1.51 1.52 1.57 1.58 1.65 1.67 1.60 1.58 1.56 1.55 1.48 1.43
0.33 0.31 0.34 0.35 0.36 0.34 0.36 0.32 0.34 0.35 0.42 0.47 0.42 0.39 0.40 0.53 0.59 0.65 0.62 0.62 0.69 0.70 0.80 0.90 1.03 1.03 1.03 1.03 1.05 1.08 1.12 1.13 1.16 1.19 1.25 1.30 1.26 1.28 1.45 1.55 1.56 1.59 1.71 1.68 1.62 1.59 1.56 1.47 1.43
0.38 0.36 0.34 0.35 0.33 0.35 0.31 0.30 0.33 0.32 0.38 0.39 0.41 0.40 0.40 0.47 0.52 0.54 0.54 0.53 0.58 0.70 0.78 0.91 0.90 0.94 0.94 0.93 0.97 1.00 1.07 1.08 1.05 1.05 1.08 1.14 1.19 1.24 1.30 1.36 1.43 1.52 1.58 1.65 1.61 1.64 1.54 1.50 1.43
0.39 0.31 0.32 0.31 0.31 0.30 0.33 0.24 0.25 0.33 0.37 0.34 0.37 0.41 0.42 0.44 0.49 0.49 0.52 0.53 0.57 0.63 0.78 0.80 0.84 0.91 0.92 0.94 0.97 1.00 1.05 1.04 1.02 1.07 1.12 1.15 1.18 1.20 1.26 1.31 1.35 1.42 1.50 1.53 1.57 1.58 1.54 1.48 1.46
0.33 0.33 0.24 0.29 0.32 0.35 0.34 0.18 0.27 0.33 0.34 0.31 0.34 0.38 0.41 0.42 0.44 0.49 0.52 0.55 0.58 0.63 0.69 0.71 0.74 0.84 0.92 0.96 0.99 1.03 1.04 1.04 1.04 1.10 1.09 1.12 1.21 1.26 1.25 1.26 1.30 1.43 1.47 1.48 1.48 1.51 1.50 1.49 1.46
0.31 0.22 0.23 0.25 0.33 0.33 0.33 0.25 0.33 0.38 0.37 0.35 0.36 0.38 0.40 0.41 0.44 0.48 0.54 0.58 0.60 0.61 0.64 0.66 0.69 0.70 0.83 0.98 1.04 1.08 1.09 1.07 1.06 1.10 1.11 1.14 1.21 1.23 1.28 1.29 1.31 1.37 1.45 1.49 1.45 1.47 1.52 1.47 1.44
0.23 0.23 0.25 0.25 0.30 0.33 0.29 0.26 0.32 0.37 0.38 0.36 0.37 0.37 0.39 0.41 0.42 0.50 0.55 0.61 0.65 0.68 0.71 0.72 0.73 0.74 0.76 0.88 1.05 1.07 1.08 1.09 1.10 1.08 1.08 1.12 1.19 1.23 1.26 1.32 1.35 1.39 1.41 1.37 1.40 1.38 1.55 1.48 1.47
0.30 0.27 0.26 0.29 0.36 0.31 0.26 0.24 0.27 0.34 0.35 0.36 0.37 0.38 0.38 0.39 0.44 0.51 0.57 0.64 0.68 0.71 0.71 0.72 0.74 0.78 0.78 0.78 0.84 0.91 0.94 1.03 1.05 1.05 1.07 1.10 1.14 1.20 1.26 1.29 1.38 1.46 1.41 1.37 1.42 1.44 1.46 1.43 1.45
0.35 0.30 0.28 0.31 0.35 0.34 0.31 0.29 0.31 0.33 0.32 0.33 0.34 0.36 0.38 0.41 0.46 0.52 0.57 0.63 0.67 0.69 0.72 0.75 0.78 0.80 0.79 0.79 0.79 0.83 0.88 0.98 1.02 1.03 1.05 1.13 1.16 1.22 1.25 1.30 1.39 1.46 1.44 1.33 1.32 1.35 1.35 1.39 1.42
0.36 0.32 0.31 0.30 0.35 0.38 0.34 0.28 0.28 0.31 0.33 0.35 0.35 0.35 0.35 0.37 0.42 0.51 0.56 0.62 0.68 0.70 0.73 0.76 0.78 0.80 0.78 0.77 0.81 0.86 0.90 0.89 0.88 0.95 0.99 1.11 1.19 1.23 1.30 1.36 1.32 1.34 1.33 1.34 1.32 1.34 1.35 1.26 1.33
0.34 0.40 0.39 0.35 0.34 0.26 0.35 0.23 0.26 0.30 0.31 0.33 0.33 0.34 0.35 0.37 0.43 0.52 0.57 0.62 0.68 0.73 0.78 0.79 0.79 0.80 0.82 0.81 0.80 0.77 0.75 0.71 0.82 0.92 1.05 1.15 1.24 1.27 1.33 1.30 1.30 1.28 1.31 1.37 1.33 1.39 1.38 1.30 1.23
0.39 0.47 0.42 0.40 0.35 0.33 0.32 0.28 0.26 0.29 0.27 0.32 0.35 0.36 0.40 0.43 0.45 0.50 0.58 0.65 0.73 0.76 0.77 0.80 0.80 0.82 0.86 0.88 0.85 0.81 0.78 0.80 0.89 0.97 1.05 1.20 1.28 1.33 1.38 1.34 1.34 1.34 1.34 1.35 1.35 1.38 1.36 1.34 1.31
0.53 0.48 0.45 0.42 0.37 0.26 0.31 0.28 0.27 0.25 0.25 0.32 0.38 0.43 0.43 0.46 0.51 0.59 0.66 0.73 0.72 0.77 0.78 0.78 0.82 0.85 0.89 0.83 0.82 0.81 0.78 0.84 0.91 0.96 1.05 1.16 1.24 1.26 1.27 1.31 1.34 1.34 1.35 1.33 1.30 1.32 1.34 1.37 1.36
0.48 0.43 0.34 0.34 0.31 0.26 0.37 0.31 0.30 0.31 0.34 0.35 0.38 0.43 0.49 0.52 0.55 0.60 0.64 0.66 0.70 0.71 0.74 0.80 0.84 0.86 0.91 0.88 0.90 0.91 0.91 0.98 0.99 1.06 1.11 1.09 1.11 1.17 1.25 1.29 1.27 1.28 1.27 1.26 1.26 1.29 1.36 1.40 1.39
0.46 0.44 0.34 0.27 0.27 0.31 0.41 0.31 0.33 0.42 0.43 0.42 0.44 0.46 0.54 0.57 0.60 0.61 0.65 0.68 0.69 0.69 0.76 0.80 0.84 0.87 0.92 0.93 0.93 0.96 1.00 1.02 1.05 1.13 1.15 1.12 1.09 1.09 1.17 1.22 1.24 1.22 1.27 1.30 1.32 1.34 1.35 1.38 1.42
0.45 0.42 0.48 0.38 0.38 0.32 0.35 0.39 0.41 0.42 0.40 0.42 0.44 0.49 0.54 0.60 0.64 0.65 0.66 0.68 0.67 0.70 0.76 0.81 0.85 0.88 0.90 0.93 0.97 0.99 1.02 1.03 1.08 1.12 1.13 1.13 1.14 1.10 1.10 1.15 1.20 1.26 1.26 1.25 1.28 1.33 1.31 1.31 1.38
0.41 0.49 0.40 0.40 0.29 0.27 0.32 0.35 0.34 0.38 0.39 0.40 0.43 0.48 0.58 0.64 0.67 0.68 0.67 0.68 0.68 0.71 0.78 0.83 0.87 0.86 0.91 0.94 0.97 0.99 1.01 1.04 1.08 1.10 1.10 1.12 1.15 1.19 1.18 1.13 1.13 1.17 1.21 1.24 1.25 1.33 1.34 1.35 1.37
0.40 0.39 0.42 0.44 0.39 0.29 0.27 0.31 0.41 0.44 0.45 0.44 0.46 0.54 0.60 0.65 0.69 0.71 0.70 0.71 0.69 0.71 0.75 0.78 0.81 0.79 0.80 0.87 0.92 0.95 0.98 1.03 1.08 1.12 1.16 1.18 1.21 1.20 1.18 1.16 1.09 1.09 1.13 1.21 1.21 1.26 1.34 1.31 1.34
0.47 0.39 0.39 0.34 0.33 0.36 0.34 0.33 0.48 0.51 0.53 0.55 0.54 0.60 0.65 0.70 0.72 0.74 0.72 0.71 0.67 0.67 0.72 0.74 0.77 0.76 0.78 0.81 0.86 0.89 0.95 0.97 0.97 1.06 1.14 1.19 1.21 1.22 1.28 1.24 1.16 1.11 1.10 1.21 1.21 1.22 1.27 1.29 1.28

GFSSGP_prec_pwat_162.txt.gz
Precipitable_Water
0.63 0.59 0.75 0.61 0.32 0.28 0.25 0.26 0.47 0.44 0.49 0.64 0.76 0.81 0.80 0.91 0.80 0.72 1.31 1.38 1.38 1.34 1.39 1.24 1.30 1.47 1.31 1.50 1.37 1.25 1.15 1.15 1.22 1.26 1.22 1.23 1.23 1.36 1.47 1.55 1.58 1.68 1.83 1.86 1.88 1.73 1.50 1.38 1.28
0.59 0.57 0.63 0.43 0.24 0.19 0.20 0.29 0.37 0.50 0.58 0.77 0.88 0.85 0.76 0.77 1.06 1.11 1.23 1.53 1.49 1.38 1.41 1.31 1.30 1.50 1.39 1.46 1.32 1.25 1.16 1.07 1.11 1.22 1.22 1.23 1.22 1.49 1.45 1.46 1.60 1.69 1.85 1.83 1.76 1.63 1.51 1.33 1.27
0.57 0.69 0.46 0.33 0.25 0.18 0.21 0.31 0.47 0.53 0.76 0.75 0.75 0.88 0.82 0.83 1.07 1.13 1.35 1.50 1.53 1.47 1.47 1.35 1.40 1.53 1.45 1.38 1.38 1.30 1.19 1.11 1.25 1.24 1.19 1.17 1.27 1.49 1.42 1.46 1.58 1.71 1.76 1.77 1.64 1.56 1.44 1.32 1.27
0.60 0.57 0.48 0.33 0.27 0.29 0.28 0.41 0.47 0.53 0.76 0.70 0.80 0.72 0.93 1.11 1.07 1.23 1.34 1.46 1.46 1.51 1.56 1.48 1.59 1.48 1.39 1.41 1.43 1.32 1.27 1.17 1.42 1.30 1.31 1.21 1.28 1.47 1.44 1.54 1.63 1.73 1.72 1.64 1.58 1.50 1.38 1.33 1.31
0.61 0.47 0.31 0.29 0.29 0.34 0.38 0.46 0.53 0.53 0.60 0.63 0.78 0.68 0.76 1.04 1.21 1.21 1.26 1.43 1.47 1.51 1.55 1.48 1.52 1.40 1.39 1.39 1.59 1.43 1.36 1.26 1.37 1.29 1.43 1.60 1.50 1.48 1.43 1.61 1.74 1.76 1.67 1.59 1.49 1.38 1.35 1.38 1.39
0.38 0.41 0.26 0.24 0.26 0.30 0.35 0.47 0.52 0.53 0.58 0.71 0.72 0.68 0.77 1.11 1.19 1.23 1.29 1.30 1.42 1.47 1.50 1.50 1.55 1.54 1.44 1.41 1.52 1.48 1.44 1.31 1.33 1.35 1.52 1.54 1.62 1.61 1.60 1.63 1.75 1.70 1.63 1.58 1.46 1.41 1.44 1.38 1.41
0.34 0.28 0.23 0.24 0.25 0.26 0.31 0.44 0.47 0.53 0.56 0.60 0.71 0.59 0.78 0.90 1.18 1.27 1.32 1.30 1.34 1.35 1.32 1.36 1.43 1.45 1.44 1.44 1.52 1.56 1.48 1.33 1.42 1.41 1.52 1.59 1.61 1.65 1.59 1.61 1.70 1.70 1.64 1.63 1.56 1.53 1.49 1.46 1.47
0.38 0.31 0.24 0.25 0.23 0.26 0.34 0.37 0.46 0.52 0.51 0.67 0.77 0.52 0.52 0.83 1.16 1.24 1.30 1.27 1.29 1.33 1.30 1.33 1.40 1.41 1.40 1.39 1.43 1.55 1.45 1.44 1.50 1.46 1.56 1.62 1.63 1.67 1.67 1.61 1.68 1.69 1.66 1.63 1.60 1.58 1.55 1.49 1.49
0.46 0.25 0.20 0.23 0.23 0.26 0.34 0.33 0.43 0.49 0.49 0.60 0.67 0.55 0.65 0.87 1.06 1.07 1.11 1.14 1.15 1.18 1.21 1.26 1.30 1.41 1.47 1.59 1.59 1.56 1.47 1.57 1.64 1.63 1.62 1.71 1.70 1.64 1.65 1.59 1.59 1.59 1.57 1.61 1.60 1.58 1.57 1.53 1.53
0.36 0.26 0.24 0.29 0.29 0.28 0.31 0.31 0.35 0.39 0.42 0.45 0.47 0.55 0.61 0.83 0.91 0.90 0.90 0.90 0.94 0.94 1.07 1.24 1.32 1.43 1.53 1.55 1.64 1.58 1.63 1.65 1.68 1.73 1.71 1.65 1.70 1.67 1.63 1.60 1.54 1.55 1.56 1.59 1.62 1.61 1.59 1.55 1.51
0.40 0.26 0.33 0.28 0.30 0.36 0.32 0.32 0.37 0.35 0.36 0.41 0.42 0.45 0.55 0.73 0.81 0.80 0.82 0.83 0.83 0.96 1.07 1.11 1.17 1.25 1.30 1.38 1.47 1.54 1.57 1.61 1.62 1.68 1.72 1.77 1.69 1.67 1.64 1.58 1.53 1.54 1.59 1.65 1.70 1.68 1.61 1.56 1.53
0.29 0.34 0.34 0.31 0.32 0.34 0.32 0.36 0.31 0.33 0.34 0.43 0.45 0.46 0.48 0.61 0.70 0.70 0.69 0.76 0.81 0.84 0.95 1.06 1.18 1.22 1.28 1.30 1.26 1.23 1.23 1.33 1.45 1.55 1.62 1.65 1.64 1.64 1.58 1.57 1.57 1.56 1.54 1.55 1.61 1.66 1.64 1.52 1.45
0.33 0.34 0.37 0.38 0.39 0.36 0.35 0.31 0.31 0.31 0.38 0.43 0.45 0.46 0.45 0.49 0.59 0.70 0.73 0.77 0.72 0.74 0.84 0.96 1.09 1.15 1.19 1.17 1.13 1.13 1.12 1.15 1.19 1.24 1.32 1.36 1.35 1.35 1.40 1.42 1.52 1.53 1.53 1.58 1.62 1.63 1.60 1.47 1.42
0.39 0.37 0.36 0.37 0.35 0.37 0.32 0.30 0.33 0.30 0.34 0.35 0.40 0.41 0.41 0.44 0.52 0.65 0.74 0.72 0.65 0.71 0.79 0.91 0.99 1.11 1.16 1.07 1.05 1.03 1.05 1.09 1.13 1.13 1.12 1.16 1.20 1.25 1.28 1.29 1.31 1.39 1.53 1.61 1.62 1.57 1.50 1.49 1.48
0.38 0.32 0.34 0.33 0.33 0.33 0.37 0.27 0.27 0.33 0.35 0.34 0.35 0.37 0.41 0.43 0.48 0.59 0.63 0.63 0.59 0.65 0.80 0.85 0.95 1.03 1.04 1.03 1.03 1.03 1.02 1.05 1.06 1.09 1.15 1.16 1.17 1.16 1.18 1.21 1.27 1.33 1.47 1.55 1.59 1.56 1.53 1.51 1.53
0.33 0.34 0.26 0.32 0.33 0.36 0.36 0.23 0.32 0.35 0.34 0.32 0.34 0.36 0.38 0.43 0.45 0.52 0.58 0.57 0.60 0.66 0.75 0.85 0.92 0.95 0.99 1.01 1.01 1.00 1.03 1.04 1.08 1.10 1.10 1.14 1.19 1.20 1.20 1.19 1.24 1.35 1.37 1.40 1.43 1.42 1.39 1.45 1.46
0.34 0.24 0.26 0.27 0.32 0.32 0.32 0.27 0.36 0.39 0.38 0.35 0.36 0.35 0.36 0.41 0.46 0.48 0.52 0.55 0.57 0.61 0.67 0.71 0.80 0.80 0.93 1.02 1.03 1.02 1.05 1.06 1.07 1.08 1.10 1.11 1.12 1.16 1.18 1.19 1.25 1.32 1.35 1.39 1.41 1.40 1.39 1.35 1.42
0.28 0.28 0.28 0.26 0.31 0.33 0.31 0.30 0.34 0.36 0.37 0.35 0.37 0.37 0.37 0.39 0.42 0.48 0.51 0.56 0.61 0.63 0.66 0.70 0.74 0.75 0.77 0.90 0.99 1.02 1.04 1.04 1.07 1.08 1.10 1.11 1.13 1.13 1.13 1.16 1.23 1.32 1.34 1.38 1.41 1.40 1.46 1.42 1.39
0.35 0.30 0.27 0.30 0.36 0.33 0.30 0.28 0.30 0.34 0.35 0.33 0.33 0.37 0.37 0.38 0.44 0.50 0.54 0.60 0.63 0.66 0.69 0.71 0.73 0.76 0.76 0.76 0.83 0.89 0.88 0.98 1.02 1.11 1.13 1.11 1.11 1.11 1.11 1.15 1.20 1.24 1.27 1.31 1.36 1.36 1.35 1.35 1.41
0.38 0.34 0.32 0.36 0.38 0.35 0.33 0.30 0.32 0.34 0.35 0.36 0.35 0.35 0.36 0.39 0.43 0.48 0.55 0.61 0.63 0.65 0.71 0.74 0.75 0.78 0.80 0.80 0.82 0.87 0.90 0.94 0.98 1.08 1.10 1.13 1.11 1.10 1.16 1.19 1.20 1.24 1.30 1.36 1.39 1.38 1.29 1.32 1.43
0.41 0.37 0.35 0.34 0.39 0.39 0.34 0.30 0.29 0.34 0.37 0.39 0.39 0.38 0.37 0.38 0.40 0.48 0.55 0.61 0.66 0.68 0.72 0.74 0.78 0.81 0.83 0.80 0.82 0.82 0.89 0.92 0.91 0.99 1.02 1.06 1.09 1.14 1.17 1.21 1.25 1.30 1.34 1.34 1.47 1.34 1.27 1.21 1.35
0.37 0.46 0.43 0.39 0.37 0.30 0.39 0.22 0.30 0.32 0.33 0.37 0.38 0.37 0.37 0.37 0.40 0.47 0.57 0.62 0.67 0.72 0.78 0.81 0.83 0.82 0.83 0.80 0.77 0.79 0.76 0.75 0.86 0.93 1.00 1.03 1.11 1.15 1.17 1.27 1.32 1.34 1.35 1.30 1.26 1.39 1.33 1.36 1.25
0.37 0.48 0.45 0.44 0.40 0.38 0.36 0.30 0.28 0.34 0.28 0.34 0.39 0.41 0.43 0.44 0.43 0.50 0.59 0.65 0.72 0.76 0.79 0.83 0.83 0.83 0.84 0.81 0.81 0.78 0.77 0.82 0.87 0.91 0.96 1.06 1.14 1.21 1.26 1.32 1.33 1.33 1.34 1.33 1.31 1.36 1.35 1.36 1.30
0.52 0.47 0.45 0.45 0.41 0.30 0.35 0.33 0.27 0.31 0.33 0.35 0.39 0.46 0.49 0.48 0.49 0.57 0.66 0.71 0.74 0.79 0.83 0.82 0.80 0.80 0.85 0.85 0.83 0.83 0.81 0.81 0.81 0.86 0.92 1.04 1.16 1.21 1.28 1.28 1.31 1.32 1.30 1.28 1.34 1.36 1.36 1.37 1.35
0.45 0.42 0.31 0.31 0.31 0.29 0.41 0.35 0.34 0.38 0.42 0.41 0.40 0.43 0.50 0.55 0.55 0.59 0.63 0.67 0.72 0.76 0.77 0.77 0.78 0.79 0.87 0.85 0.87 0.89 0.87 0.85 0.91 0.95 1.00 1.07 1.12 1.17 1.22 1.30 1.28 1.30 1.32 1.35 1.37 1.33 1.32 1.32 1.32
0.37 0.35 0.29 0.23 0.26 0.31 0.43 0.34 0.38 0.48 0.52 0.50 0.48 0.47 0.53 0.59 0.63 0.64 0.68 0.71 0.75 0.77 0.74 0.76 0.80 0.82 0.87 0.86 0.89 0.92 0.93 0.96 0.99 1.01 1.07 1.12 1.13 1.16 1.19 1.20 1.26 1.29 1.30 1.30 1.31 1.27 1.28 1.32 1.34
0.37 0.33 0.38 0.34 0.36 0.33 0.36 0.39 0.44 0.49 0.51 0.51 0.49 0.49 0.54 0.61 0.65 0.67 0.72 0.74 0.76 0.73 0.74 0.78 0.82 0.85 0.88 0.92 0.95 0.94 0.96 0.98 0.98 1.03 1.08 1.11 1.14 1.15 1.15 1.15 1.16 1.22 1.24 1.26 1.29 1.29 1.29 1.35 1.31
0.44 0.46 0.34 0.36 0.24 0.25 0.31 0.33 0.35 0.42 0.46 0.52 0.48 0.53 0.58 0.66 0.70 0.74 0.76 0.76 0.75 0.75 0.78 0.83 0.86 0.85 0.88 0.93 0.97 0.97 1.01 1.02 1.03 1.05 1.04 1.07 1.10 1.13 1.16 1.17 1.17 1.18 1.25 1.31 1.27 1.20 1.28 1.31 1.30
0.41 0.40 0.41 0.39 0.33 0.25 0.25 0.32 0.44 0.47 0.52 0.56 0.55 0.59 0.63 0.68 0.73 0.77 0.78 0.78 0.76 0.76 0.79 0.82 0.84 0.84 0.85 0.88 0.92 0.95 0.98 1.01 1.04 1.04 1.08 1.11 1.15 1.17 1.20 1.20 1.20 1.16 1.15 1.19 1.23 1.19 1.23 1.28 1.32
0.45 0.49 0.41 0.28 0.26 0.31 0.31 0.32 0.48 0.52 0.60 0.62 0.64 0.65 0.69 0.72 0.75 0.79 0.78 0.77 0.74 0.73 0.76 0.77 0.80 0.80 0.80 0.82 0.83 0.87 0.93 0.97 0.97 0.97 1.02 1.15 1.17 1.20 1.18 1.20 1.20 1.20 1.15 1.14 1.12 1.13 1.16 1.22 1.29

GFSSGP_prec_pwat_168.txt.gz
Precipitable_Water
0.62 0.57 0.60 0.60 0.37 0.32 0.25 0.34 0.41 0.49 0.51 0.69 0.73 0.71 0.87 1.03 0.93 0.83 1.57 1.57 1.52 1.36 1.23 1.30 1.43 1.36 1.29 1.25 1.21 1.18 1.20 1.20 1.19 1.23 1.23 1.21 1.13 1.31 1.40 1.48 1.59 1.71 1.82 1.83 1.68 1.54 1.41 1.30 1.27
0.68 0.50 0.59 0.55 0.25 0.26 0.31 0.38 0.37 0.44 0.62 0.66 0.68 0.71 0.75 0.95 1.19 1.27 1.29 1.42 1.42 1.43 1.29 1.36 1.53 1.48 1.37 1.39 1.24 1.08 1.07 1.11 1.13 1.15 1.17 1.22 1.19 1.44 1.42 1.37 1.55 1.67 1.79 1.78 1.62 1.50 1.39 1.32 1.30
0.55 0.61 0.55 0.37 0.32 0.22 0.28 0.40 0.38 0.53 0.64 0.64 0.71 0.80 0.90 0.98 1.15 1.28 1.45 1.38 1.38 1.39 1.35 1.29 1.45 1.48 1.46 1.53 1.31 1.17 1.05 1.06 1.09 1.13 1.15 1.19 1.22 1.45 1.39 1.40 1.50 1.63 1.69 1.65 1.56 1.42 1.31 1.28 1.33
0.56 0.60 0.58 0.38 0.30 0.32 0.33 0.36 0.44 0.51 0.56 0.69 0.75 0.72 1.00 1.31 1.20 1.32 1.38 1.35 1.30 1.34 1.35 1.33 1.20 1.46 1.50 1.57 1.38 1.26 1.14 1.09 1.19 1.21 1.15 1.26 1.30 1.48 1.41 1.45 1.57 1.67 1.75 1.65 1.53 1.40 1.31 1.28 1.33
0.55 0.62 0.41 0.36 0.37 0.38 0.39 0.39 0.39 0.39 0.53 0.71 0.67 0.74 0.95 1.17 1.26 1.28 1.30 1.38 1.28 1.30 1.37 1.41 1.27 1.42 1.52 1.46 1.46 1.37 1.25 1.13 1.35 1.21 1.31 1.27 1.38 1.46 1.47 1.51 1.61 1.72 1.79 1.70 1.55 1.40 1.38 1.36 1.32
0.46 0.44 0.32 0.27 0.31 0.35 0.38 0.42 0.46 0.45 0.51 0.69 0.62 0.65 0.97 1.26 1.14 1.26 1.32 1.36 1.51 1.44 1.44 1.51 1.37 1.51 1.51 1.42 1.57 1.49 1.37 1.20 1.32 1.21 1.35 1.56 1.44 1.50 1.49 1.60 1.66 1.73 1.67 1.64 1.57 1.49 1.44 1.40 1.35
0.40 0.39 0.26 0.27 0.28 0.32 0.35 0.37 0.37 0.47 0.51 0.55 0.64 0.61 1.00 1.16 1.22 1.18 1.25 1.33 1.49 1.58 1.52 1.58 1.48 1.63 1.54 1.46 1.55 1.63 1.63 1.39 1.25 1.29 1.43 1.53 1.57 1.57 1.54 1.57 1.62 1.69 1.72 1.65 1.59 1.55 1.49 1.41 1.40
0.50 0.41 0.28 0.26 0.25 0.26 0.33 0.35 0.35 0.37 0.46 0.64 0.75 0.56 0.77 1.10 1.24 1.17 1.22 1.30 1.34 1.54 1.51 1.42 1.40 1.43 1.43 1.48 1.51 1.55 1.54 1.50 1.33 1.36 1.46 1.47 1.50 1.54 1.55 1.56 1.60 1.65 1.68 1.67 1.65 1.55 1.49 1.40 1.38
0.49 0.31 0.23 0.27 0.29 0.30 0.35 0.32 0.33 0.37 0.42 0.56 0.62 0.63 0.85 1.17 1.11 1.04 1.11 1.14 1.26 1.31 1.34 1.43 1.31 1.36 1.36 1.37 1.37 1.38 1.43 1.41 1.36 1.38 1.39 1.48 1.46 1.51 1.57 1.56 1.58 1.61 1.66 1.57 1.59 1.60 1.50 1.42 1.36
0.40 0.29 0.27 0.39 0.37 0.34 0.35 0.33 0.32 0.37 0.35 0.40 0.47 0.66 0.72 0.99 0.94 0.91 0.93 0.98 1.07 1.17 1.26 1.31 1.26 1.24 1.36 1.42 1.52 1.52 1.51 1.52 1.45 1.42 1.38 1.49 1.57 1.71 1.69 1.66 1.65 1.65 1.66 1.65 1.64 1.63 1.55 1.44 1.35
0.44 0.31 0.35 0.41 0.42 0.40 0.33 0.33 0.36 0.32 0.31 0.37 0.42 0.50 0.58 0.75 0.82 0.86 0.96 1.00 1.11 1.20 1.18 1.29 1.35 1.40 1.28 1.38 1.59 1.64 1.73 1.72 1.70 1.69 1.76 1.70 1.74 1.70 1.65 1.67 1.67 1.63 1.60 1.58 1.59 1.60 1.52 1.46 1.41
0.37 0.43 0.42 0.38 0.39 0.38 0.32 0.35 0.33 0.36 0.35 0.40 0.48 0.51 0.57 0.61 0.68 0.75 0.81 0.95 1.07 1.21 1.19 1.09 1.32 1.22 1.30 1.41 1.51 1.58 1.62 1.75 1.69 1.76 1.76 1.78 1.76 1.75 1.66 1.62 1.66 1.66 1.66 1.56 1.58 1.57 1.55 1.52 1.49
0.36 0.38 0.42 0.42 0.39 0.39 0.39 0.34 0.33 0.31 0.38 0.42 0.45 0.46 0.48 0.48 0.55 0.65 0.79 0.86 1.01 1.06 1.13 1.16 1.05 1.29 1.24 1.22 1.21 1.31 1.36 1.41 1.39 1.45 1.48 1.56 1.54 1.56 1.64 1.64 1.67 1.68 1.61 1.59 1.55 1.49 1.50 1.54 1.54
0.40 0.39 0.38 0.39 0.38 0.39 0.36 0.36 0.37 0.33 0.38 0.35 0.38 0.40 0.43 0.42 0.43 0.46 0.61 0.75 0.77 0.91 1.09 1.19 1.14 1.11 1.16 1.15 1.12 1.20 1.27 1.33 1.35 1.28 1.32 1.18 1.20 1.23 1.27 1.31 1.29 1.28 1.32 1.39 1.38 1.39 1.46 1.51 1.47
0.43 0.36 0.36 0.35 0.35 0.35 0.39 0.32 0.31 0.36 0.40 0.36 0.37 0.37 0.40 0.45 0.46 0.43 0.48 0.62 0.75 0.76 0.91 1.03 1.08 1.10 1.11 1.09 1.14 1.13 1.14 1.09 1.08 1.09 1.18 1.24 1.25 1.13 1.07 1.02 1.06 1.15 1.24 1.30 1.34 1.37 1.41 1.43 1.41
0.39 0.38 0.30 0.37 0.40 0.41 0.40 0.27 0.31 0.40 0.41 0.38 0.38 0.38 0.40 0.41 0.43 0.47 0.47 0.52 0.70 0.79 0.83 0.95 1.11 1.15 1.02 1.07 1.12 1.09 1.00 0.96 1.02 1.03 1.10 1.09 1.17 1.14 1.11 1.17 1.11 1.20 1.24 1.22 1.24 1.28 1.29 1.33 1.34
0.38 0.29 0.32 0.36 0.44 0.42 0.40 0.33 0.36 0.43 0.43 0.40 0.39 0.40 0.40 0.41 0.43 0.46 0.48 0.48 0.70 0.74 0.75 0.81 0.96 1.02 1.00 1.03 1.05 1.03 1.01 1.00 0.98 1.07 1.09 1.07 1.07 1.12 1.05 1.05 1.15 1.17 1.17 1.20 1.20 1.20 1.27 1.25 1.27
0.33 0.34 0.36 0.35 0.42 0.42 0.38 0.36 0.40 0.39 0.41 0.42 0.42 0.42 0.42 0.42 0.44 0.47 0.50 0.52 0.64 0.72 0.75 0.85 0.92 0.94 1.02 1.04 1.03 1.02 0.96 1.01 1.05 1.03 1.07 1.07 1.10 1.11 1.07 1.02 1.10 1.13 1.06 1.06 1.14 1.13 1.21 1.24 1.25
0.41 0.38 0.35 0.39 0.43 0.40 0.37 0.36 0.39 0.44 0.43 0.38 0.39 0.38 0.38 0.36 0.42 0.49 0.50 0.54 0.61 0.67 0.67 0.78 0.84 0.88 0.96 0.91 0.90 0.88 0.83 0.89 0.94 0.98 1.00 1.04 1.07 1.14 1.11 1.06 1.07 1.10 1.02 1.07 1.13 1.18 1.16 1.21 1.26
0.42 0.38 0.36 0.41 0.46 0.44 0.42 0.40 0.44 0.46 0.43 0.43 0.41 0.40 0.39 0.40 0.41 0.44 0.50 0.54 0.58 0.61 0.62 0.70 0.77 0.82 0.85 0.87 0.91 0.92 0.88 0.92 0.95 1.01 1.02 1.02 1.09 1.11 1.11 1.09 1.02 1.03 1.06 1.09 1.15 1.19 1.15 1.17 1.25
0.40 0.37 0.37 0.37 0.43 0.45 0.43 0.38 0.41 0.45 0.49 0.50 0.50 0.47 0.44 0.42 0.40 0.42 0.49 0.53 0.58 0.61 0.63 0.68 0.75 0.79 0.81 0.82 0.82 0.84 0.89 0.91 0.91 0.94 0.96 0.93 1.06 1.09 1.12 1.11 1.05 1.06 1.13 1.12 1.19 1.23 1.18 1.07 1.21
0.32 0.43 0.40 0.39 0.37 0.32 0.46 0.30 0.39 0.44 0.45 0.47 0.49 0.51 0.49 0.48 0.47 0.48 0.49 0.55 0.58 0.64 0.73 0.76 0.81 0.83 0.85 0.86 0.81 0.77 0.74 0.72 0.81 0.83 0.90 0.90 1.08 1.13 1.10 1.11 1.08 1.11 1.16 1.19 1.22 1.29 1.21 1.19 1.13
0.35 0.44 0.41 0.39 0.38 0.38 0.35 0.36 0.32 0.42 0.42 0.46 0.46 0.50 0.55 0.54 0.51 0.48 0.56 0.63 0.67 0.75 0.79 0.83 0.88 0.88 0.90 0.86 0.84 0.80 0.76 0.78 0.84 0.91 0.95 1.00 1.06 1.10 1.13 1.14 1.11 1.11 1.23 1.29 1.29 1.30 1.27 1.23 1.16
0.46 0.40 0.38 0.39 0.37 0.25 0.27 0.34 0.25 0.35 0.40 0.40 0.46 0.53 0.58 0.59 0.54 0.52 0.63 0.70 0.77 0.84 0.86 0.89 0.90 0.91 0.91 0.87 0.83 0.80 0.74 0.76 0.80 0.88 0.89 0.95 1.02 1.08 1.12 1.12 1.16 1.22 1.28 1.27 1.32 1.35 1.32 1.27 1.25
0.44 0.39 0.30 0.27 0.26 0.19 0.29 0.31 0.29 0.38 0.40 0.40 0.38 0.49 0.59 0.64 0.58 0.58 0.64 0.74 0.83 0.86 0.89 0.92 0.94 0.90 0.93 0.89 0.86 0.81 0.80 0.82 0.83 0.87 0.88 0.86 0.90 0.99 1.06 1.14 1.20 1.21 1.24 1.24 1.31 1.35 1.29 1.32 1.28
0.33 0.38 0.34 0.25 0.21 0.22 0.31 0.28 0.30 0.40 0.43 0.38 0.41 0.44 0.56 0.61 0.63 0.67 0.72 0.79 0.85 0.91 0.94 0.94 0.94 0.92 0.91 0.89 0.84 0.86 0.86 0.86 0.88 0.90 0.93 0.90 0.93 1.03 1.14 1.17 1.22 1.21 1.22 1.22 1.27 1.26 1.28 1.35 1.33
0.33 0.34 0.49 0.39 0.37 0.29 0.26 0.26 0.30 0.36 0.36 0.39 0.39 0.41 0.50 0.63 0.70 0.74 0.81 0.86 0.91 0.92 0.94 0.91 0.91 0.92 0.91 0.85 0.83 0.83 0.85 0.84 0.85 0.92 0.99 1.02 1.07 1.10 1.16 1.21 1.20 1.22 1.22 1.24 1.25 1.27 1.26 1.30 1.28
0.31 0.35 0.30 0.37 0.26 0.25 0.28 0.24 0.20 0.24 0.35 0.43 0.42 0.45 0.54 0.69 0.77 0.83 0.87 0.90 0.95 0.95 0.93 0.95 0.95 0.90 0.87 0.88 0.88 0.87 0.88 0.91 0.95 0.99 0.98 1.02 1.06 1.08 1.11 1.16 1.20 1.22 1.23 1.24 1.22 1.25 1.30 1.26 1.28
0.19 0.27 0.34 0.39 0.37 0.26 0.21 0.25 0.43 0.42 0.47 0.47 0.50 0.55 0.60 0.72 0.79 0.87 0.91 0.97 0.97 0.95 0.94 0.94 0.92 0.87 0.87 0.91 0.91 0.88 0.88 0.91 0.96 0.98 1.00 1.03 1.05 1.07 1.09 1.15 1.18 1.20 1.19 1.24 1.25 1.24 1.27 1.21 1.19
0.14 0.19 0.32 0.26 0.24 0.33 0.31 0.24 0.51 0.57 0.67 0.60 0.61 0.67 0.67 0.73 0.84 0.91 0.95 0.98 0.96 0.92 0.91 0.87 0.87 0.87 0.91 0.90 0.88 0.87 0.91 0.93 0.93 0.95 0.98 1.00 1.02 1.07 1.09 1.11 1.13 1.18 1.20 1.23 1.25 1.21 1.23 1.19 1.13

GFSSGP_prec_pwat_174.txt.gz
Precipitable_Water
0.53 0.62 0.57 0.56 0.33 0.28 0.20 0.32 0.45 0.45 0.51 0.68 0.76 0.76 0.80 0.95 0.88 0.75 1.52 1.48 1.53 1.46 1.38 1.21 1.21 1.21 1.22 1.28 1.29 1.32 1.30 1.33 1.30 1.31 1.27 1.19 1.27 1.38 1.39 1.49 1.61 1.68 1.62 1.54 1.43 1.28 1.21 1.29 1.36
0.56 0.58 0.59 0.49 0.21 0.21 0.28 0.37 0.38 0.47 0.57 0.69 0.74 0.79 0.76 0.72 1.08 1.20 1.32 1.58 1.57 1.50 1.29 1.24 1.23 1.24 1.26 1.29 1.29 1.27 1.20 1.19 1.22 1.23 1.17 1.15 1.33 1.40 1.37 1.44 1.56 1.64 1.56 1.48 1.34 1.23 1.23 1.30 1.37
0.55 0.58 0.40 0.32 0.24 0.18 0.28 0.38 0.44 0.49 0.58 0.59 0.64 0.82 0.76 0.75 1.00 1.13 1.40 1.57 1.59 1.43 1.26 1.24 1.25 1.25 1.26 1.23 1.24 1.25 1.21 1.16 1.13 1.12 1.17 1.21 1.37 1.36 1.35 1.46 1.55 1.64 1.56 1.49 1.37 1.30 1.33 1.39 1.41
0.50 0.48 0.46 0.31 0.23 0.27 0.34 0.39 0.40 0.44 0.57 0.66 0.72 0.65 0.89 1.08 1.06 1.17 1.31 1.44 1.36 1.21 1.14 1.25 1.25 1.27 1.31 1.23 1.18 1.16 1.14 1.12 1.10 1.14 1.15 1.19 1.39 1.40 1.39 1.45 1.63 1.70 1.62 1.52 1.40 1.36 1.42 1.45 1.46
0.50 0.48 0.29 0.26 0.28 0.35 0.37 0.41 0.43 0.38 0.40 0.46 0.59 0.70 0.82 1.12 1.31 1.24 1.21 1.28 1.21 1.20 1.22 1.27 1.33 1.28 1.38 1.33 1.23 1.17 1.12 1.14 1.17 1.09 1.11 1.27 1.38 1.44 1.44 1.45 1.61 1.72 1.66 1.54 1.44 1.39 1.40 1.42 1.45
0.36 0.41 0.24 0.21 0.27 0.34 0.36 0.39 0.39 0.38 0.39 0.52 0.61 0.75 0.90 1.23 1.22 1.23 1.27 1.24 1.29 1.25 1.33 1.33 1.31 1.26 1.41 1.44 1.33 1.27 1.19 1.23 1.26 1.19 1.11 1.24 1.36 1.46 1.55 1.48 1.58 1.65 1.67 1.53 1.50 1.45 1.38 1.38 1.43
0.35 0.32 0.22 0.23 0.24 0.30 0.34 0.40 0.40 0.44 0.43 0.41 0.64 0.65 0.92 1.13 1.31 1.29 1.30 1.32 1.27 1.30 1.35 1.45 1.47 1.37 1.50 1.53 1.45 1.39 1.29 1.30 1.34 1.18 1.31 1.31 1.41 1.50 1.59 1.59 1.60 1.62 1.65 1.62 1.53 1.49 1.38 1.33 1.39
0.44 0.38 0.26 0.25 0.23 0.23 0.34 0.35 0.36 0.35 0.36 0.47 0.60 0.56 0.65 0.98 1.25 1.37 1.41 1.37 1.31 1.32 1.35 1.39 1.51 1.46 1.49 1.57 1.51 1.54 1.46 1.43 1.38 1.28 1.36 1.42 1.42 1.53 1.54 1.55 1.55 1.57 1.58 1.64 1.53 1.48 1.39 1.34 1.38
0.51 0.30 0.22 0.23 0.28 0.31 0.38 0.33 0.37 0.39 0.34 0.37 0.46 0.63 0.78 1.15 1.27 1.26 1.21 1.30 1.33 1.35 1.36 1.38 1.37 1.35 1.39 1.52 1.53 1.53 1.60 1.58 1.44 1.26 1.33 1.41 1.45 1.48 1.49 1.49 1.53 1.56 1.57 1.62 1.56 1.54 1.46 1.33 1.27
0.39 0.26 0.22 0.28 0.35 0.34 0.39 0.39 0.38 0.36 0.32 0.29 0.46 0.69 0.88 1.07 1.08 1.02 1.05 1.06 1.17 1.21 1.29 1.39 1.37 1.33 1.37 1.40 1.36 1.40 1.46 1.48 1.39 1.29 1.31 1.37 1.44 1.45 1.48 1.53 1.59 1.64 1.63 1.64 1.63 1.57 1.51 1.36 1.25
0.44 0.30 0.34 0.34 0.41 0.44 0.40 0.37 0.41 0.37 0.31 0.31 0.35 0.61 0.79 0.86 0.90 0.83 0.88 0.96 1.02 1.34 1.38 1.37 1.36 1.37 1.30 1.26 1.35 1.37 1.38 1.39 1.43 1.32 1.33 1.40 1.45 1.55 1.66 1.69 1.71 1.76 1.77 1.72 1.70 1.61 1.54 1.41 1.39
0.37 0.42 0.40 0.40 0.41 0.42 0.39 0.39 0.33 0.35 0.32 0.37 0.41 0.62 0.84 0.74 0.83 0.84 0.89 1.01 1.11 1.13 1.16 1.31 1.39 1.33 1.25 1.25 1.30 1.32 1.37 1.42 1.55 1.58 1.54 1.48 1.58 1.69 1.78 1.84 1.81 1.82 1.82 1.74 1.71 1.65 1.58 1.48 1.47
0.40 0.41 0.44 0.45 0.42 0.39 0.40 0.36 0.36 0.33 0.36 0.39 0.38 0.44 0.46 0.70 0.77 0.88 0.91 0.91 1.00 1.00 1.08 1.22 1.41 1.34 1.28 1.19 1.29 1.35 1.39 1.54 1.61 1.67 1.79 1.84 1.79 1.71 1.71 1.66 1.63 1.65 1.68 1.62 1.54 1.49 1.43 1.38 1.34
0.42 0.41 0.41 0.42 0.41 0.41 0.38 0.36 0.38 0.35 0.41 0.40 0.40 0.37 0.42 0.49 0.73 0.80 0.80 0.84 0.97 1.06 1.14 1.22 1.30 1.40 1.32 1.23 1.16 1.20 1.35 1.37 1.43 1.48 1.56 1.55 1.56 1.54 1.50 1.45 1.44 1.47 1.48 1.46 1.35 1.29 1.26 1.22 1.23
0.46 0.37 0.39 0.40 0.40 0.37 0.40 0.34 0.32 0.38 0.43 0.40 0.41 0.42 0.40 0.43 0.53 0.73 0.72 0.75 0.90 1.05 1.17 1.22 1.29 1.30 1.30 1.29 1.16 1.07 1.20 1.29 1.23 1.30 1.36 1.38 1.32 1.27 1.26 1.22 1.19 1.18 1.22 1.19 1.20 1.22 1.24 1.14 1.19
0.37 0.37 0.29 0.37 0.37 0.40 0.41 0.29 0.39 0.45 0.43 0.41 0.43 0.43 0.44 0.41 0.45 0.50 0.58 0.60 0.58 0.71 0.94 1.18 1.27 1.26 1.21 1.24 1.18 1.11 1.19 1.22 1.25 1.21 1.16 1.11 1.10 1.08 1.01 0.97 0.99 1.05 1.07 1.11 1.13 1.16 1.15 1.11 1.15
0.34 0.24 0.26 0.29 0.41 0.41 0.40 0.34 0.42 0.47 0.44 0.42 0.43 0.44 0.46 0.45 0.47 0.47 0.49 0.51 0.53 0.62 0.76 1.02 1.17 1.21 1.20 1.20 1.18 1.16 1.13 1.18 1.21 1.18 1.15 1.14 1.16 1.11 1.06 1.02 1.02 1.08 1.06 1.05 1.05 1.08 1.07 1.08 1.14
0.26 0.28 0.31 0.31 0.38 0.43 0.39 0.36 0.42 0.46 0.45 0.44 0.43 0.44 0.44 0.44 0.44 0.49 0.50 0.51 0.54 0.63 0.76 0.91 1.11 1.15 1.19 1.21 1.20 1.16 1.11 1.18 1.22 1.17 1.11 1.10 1.13 1.18 1.12 1.08 1.06 1.08 1.04 1.03 1.03 1.01 1.05 1.05 1.11
0.35 0.33 0.31 0.37 0.44 0.40 0.38 0.36 0.40 0.45 0.45 0.44 0.46 0.47 0.46 0.48 0.50 0.52 0.54 0.54 0.54 0.65 0.77 0.86 1.05 1.12 1.13 1.11 1.06 1.00 0.91 1.02 1.00 0.97 1.06 1.05 1.09 1.14 1.11 1.09 1.07 1.09 1.04 1.02 1.05 1.03 0.96 0.95 1.07
0.40 0.37 0.35 0.39 0.44 0.42 0.39 0.33 0.40 0.43 0.44 0.44 0.45 0.45 0.47 0.50 0.53 0.52 0.50 0.53 0.55 0.59 0.76 0.86 1.02 1.05 1.06 1.08 1.04 0.99 0.95 0.98 0.95 0.99 1.03 1.06 1.06 1.07 1.07 1.03 1.02 1.03 0.99 0.99 1.01 0.97 0.94 1.00 1.09
0.40 0.38 0.38 0.37 0.42 0.42 0.39 0.30 0.35 0.41 0.43 0.44 0.44 0.46 0.49 0.51 0.52 0.55 0.52 0.50 0.56 0.60 0.75 0.83 0.97 1.04 1.06 1.09 1.08 1.02 1.01 1.01 0.97 0.98 1.00 1.04 1.04 1.03 1.06 1.06 1.05 1.05 1.03 0.97 0.99 0.97 0.98 0.98 1.12
0.32 0.44 0.42 0.39 0.36 0.27 0.40 0.23 0.31 0.34 0.35 0.36 0.36 0.39 0.43 0.47 0.53 0.56 0.57 0.53 0.52 0.61 0.77 0.85 0.97 1.04 1.12 1.10 0.99 0.91 0.81 0.79 0.90 0.94 1.01 1.05 1.05 1.03 1.05 1.06 1.12 1.07 1.04 0.98 0.97 1.08 1.08 1.10 1.05
0.36 0.46 0.45 0.42 0.37 0.33 0.35 0.32 0.25 0.35 0.30 0.29 0.34 0.36 0.44 0.50 0.54 0.57 0.61 0.63 0.62 0.65 0.77 0.89 0.98 1.06 1.09 1.09 1.04 0.96 0.89 0.92 0.97 0.99 0.99 0.96 0.96 1.00 1.06 1.09 1.10 1.03 1.00 1.05 1.07 1.07 1.13 1.17 1.13
0.43 0.42 0.42 0.43 0.39 0.26 0.33 0.33 0.21 0.30 0.35 0.38 0.43 0.46 0.46 0.46 0.49 0.59 0.65 0.69 0.72 0.76 0.83 0.90 0.98 1.05 1.10 1.09 1.07 0.98 0.89 0.87 0.89 0.90 0.88 0.89 0.94 1.01 1.07 1.14 1.09 1.09 1.06 1.07 1.10 1.16 1.16 1.18 1.19
0.36 0.36 0.31 0.28 0.29 0.24 0.36 0.33 0.26 0.37 0.43 0.48 0.45 0.44 0.49 0.49 0.50 0.56 0.60 0.65 0.71 0.79 0.91 0.97 1.01 1.00 1.04 1.00 0.96 0.93 0.90 0.90 0.86 0.86 0.87 0.85 0.90 0.94 1.01 1.06 1.09 1.08 1.10 1.15 1.17 1.19 1.20 1.22 1.23
0.30 0.31 0.27 0.21 0.20 0.24 0.36 0.27 0.29 0.45 0.54 0.56 0.56 0.56 0.60 0.56 0.52 0.52 0.62 0.68 0.76 0.82 0.94 1.00 1.00 0.97 1.00 1.00 0.98 1.00 0.97 0.92 0.92 0.92 0.90 0.92 0.92 0.95 1.05 1.06 1.09 1.13 1.16 1.17 1.18 1.20 1.24 1.27 1.25
0.23 0.22 0.25 0.24 0.26 0.24 0.24 0.30 0.41 0.45 0.48 0.55 0.58 0.61 0.65 0.61 0.64 0.70 0.70 0.75 0.80 0.88 0.97 0.99 1.01 1.03 1.06 1.06 1.05 1.02 0.98 0.95 0.92 0.93 0.95 0.93 0.94 0.96 0.98 1.03 1.08 1.14 1.16 1.16 1.15 1.17 1.22 1.28 1.29
0.17 0.18 0.14 0.20 0.16 0.16 0.19 0.24 0.23 0.34 0.40 0.50 0.55 0.58 0.64 0.67 0.73 0.81 0.83 0.86 0.90 0.98 1.04 1.10 1.07 1.07 1.10 1.12 1.10 1.02 0.99 0.99 0.97 0.95 0.93 0.91 0.95 0.98 1.03 1.07 1.13 1.16 1.16 1.15 1.16 1.15 1.21 1.22 1.25
0.11 0.09 0.12 0.16 0.18 0.14 0.14 0.19 0.40 0.38 0.44 0.47 0.52 0.60 0.66 0.69 0.75 0.88 0.89 0.92 0.99 1.04 1.09 1.11 1.08 1.07 1.06 1.07 1.06 1.00 0.98 0.97 0.92 0.88 0.89 0.94 1.00 1.03 1.05 1.10 1.13 1.13 1.14 1.17 1.18 1.17 1.21 1.19 1.22
0.16 0.18 0.20 0.14 0.11 0.16 0.19 0.19 0.40 0.37 0.41 0.46 0.51 0.59 0.63 0.71 0.79 0.86 0.95 0.97 0.97 1.04 1.08 1.08 1.06 1.07 1.06 1.06 1.01 0.96 0.96 0.91 0.91 0.89 0.91 0.95 0.98 1.03 1.04 1.05 1.05 1.08 1.11 1.17 1.18 1.17 1.22 1.25 1.18